This demonstration page uses our WeatherBlox Daily Observations layout. Learn more.

Left ArrowRight Arrow

41.55636, -103.73856

Hourly Observations for May 12, 2019

Temp ( °F °C ) Dew Point ( °F °C ) Humidity (%) Winds ( mph kmh ) Pressure ( in mb ) Visibility ( mi km ) Precip ( " mm )
7:58 pm 19:58 Mostly Clear 48 9 27 -2.7 44 44 NNW 14 22 29.90 1012 10 16 0.00 0.00
9:58 pm 21:58 undefined 41 4.8 30 -1.3 65 65 NW 9 15 29.99 1016 10 16 0.00 0.00
10:58 pm 22:58 undefined 37 2.7 30 -1.3 75 75 WNW 10 17 30.00 1016 10 16 0.00 0.00
11:58 pm 23:58 undefined 36 2.2 29 -1.8 75 75 NNW 6 9 30.03 1017 10 16 0.00 0.00
12:58 am 00:58 undefined 38 3.2 31 -0.6 76 76 WNW 6 9 29.99 1016 10 16 0.00 0.00
2:58 am 02:58 undefined 32 0.1 29 -1.8 87 87 W 7 11 29.96 1014 10 16 0.00 0.00
3:58 am 03:58 undefined 32 0.1 28 -2.1 85 85 W 8 13 29.94 1014 10 16 0.00 0.00
4:58 am 04:58 undefined 32 0.1 28 -2.3 84 84 W 12 19 29.94 1014 10 16 0.00 0.00
5:58 am 05:58 undefined 32 0 28 -2.3 85 85 W 10 17 29.96 1014 10 16 0.00 0.00
6:58 am 06:58 undefined 38 3.3 31 -0.4 77 77 W 8 13 29.93 1014 10 16 0.00 0.00
7:58 am 07:58 undefined 46 7.8 32 0.1 59 59 NW 12 19 29.90 1013 10 16 0.00 0.00
8:58 am 08:58 undefined 51 10.4 31 -0.7 46 46 NNW 12 19 29.90 1013 10 16 0.00 0.00
9:58 am 09:58 undefined 54 12.1 33 0.7 46 46 NNW 15 24 29.91 1013 10 16 0.00 0.00
10:58 am 10:58 undefined 57 13.8 35 1.5 43 43 NNW 17 28 29.91 1013 10 16 0.00 0.00
11:58 am 11:58 undefined 60 15.7 37 2.5 41 41 N 13 20 29.88 1012 10 16 0.00 0.00
12:58 pm 12:58 undefined 62 16.7 30 -1.1 30 30 NNW 17 28 29.85 1011 10 16 0.00 0.00
1:58 pm 13:58 undefined 64 17.5 34 1.1 33 33 N 13 20 29.84 1011 10 16 0.00 0.00
2:58 pm 14:58 undefined 65 18.6 33 0.6 30 30 N 12 19 29.83 1010 10 16 0.00 0.00
3:58 pm 15:58 undefined 67 19.3 35 1.5 31 31 N 12 19 29.82 1010 10 16 0.00 0.00
4:58 pm 16:58 undefined 67 19.7 33 0.4 28 28 N 18 30 29.81 1010 10 16 0.00 0.00
5:58 pm 17:58 undefined 67 19.5 33 0.8 29 29 N 8 13 29.81 1010 10 16 0.00 0.00

Powered by AerisWeather